Time,TemperatureF,DewpointF,PressureIn,WindDirection,WindDirectionDegrees,WindSpeedMPH,WindSpeedGustMPH,Humidity,HourlyPrecipIn,Conditions,Clouds,dailyrainin,SoftwareType,DateUTC
2013-09-02 00:01:00,72.0,67.6,29.55,SSW,203,0.2,0.7,86,0.00,,,0.00,WUHU216HW,2013-09-02 04:01:00,
2013-09-02 00:06:00,71.8,67.4,29.55,SSW,203,0.0,0.9,86,0.00,,,0.00,WUHU216HW,2013-09-02 04:06:00,
2013-09-02 00:11:00,71.8,67.4,29.55,SSW,203,0.4,0.9,86,0.00,,,0.00,WUHU216HW,2013-09-02 04:11:00,
2013-09-02 00:16:00,71.8,67.4,29.56,SSW,203,0.0,0.4,86,0.00,,,0.00,WUHU216HW,2013-09-02 04:16:00,
2013-09-02 00:21:00,71.6,67.2,29.56,SSW,203,0.0,0.0,86,0.00,,,0.00,WUHU216HW,2013-09-02 04:21:00,
2013-09-02 00:26:00,71.6,67.2,29.56,SSW,203,0.0,0.0,86,0.00,,,0.00,WUHU216HW,2013-09-02 04:26:00,
2013-09-02 00:31:00,71.6,67.2,29.56,SSW,203,0.0,0.0,86,0.00,,,0.00,WUHU216HW,2013-09-02 04:31:00,
2013-09-02 00:36:00,71.6,67.2,29.56,SSW,203,0.0,0.0,86,0.00,,,0.00,WUHU216HW,2013-09-02 04:36:00,
2013-09-02 00:41:00,71.6,67.2,29.55,SSW,203,0.0,0.0,86,0.00,,,0.00,WUHU216HW,2013-09-02 04:41:00,
2013-09-02 00:46:00,71.5,67.1,29.56,SSW,203,0.0,0.0,86,0.00,,,0.00,WUHU216HW,2013-09-02 04:46:00,
2013-09-02 00:51:00,71.3,66.9,29.55,SSW,203,0.0,0.0,86,0.00,,,0.00,WUHU216HW,2013-09-02 04:51:00,
2013-09-02 00:56:00,71.3,66.9,29.55,SSW,203,0.0,0.0,86,0.00,,,0.00,WUHU216HW,2013-09-02 04:56:00,
2013-09-02 01:01:00,71.3,66.9,29.56,SSW,203,0.0,0.0,86,0.00,,,0.00,WUHU216HW,2013-09-02 05:01:00,
2013-09-02 01:06:00,71.1,66.7,29.56,SSW,203,0.0,0.0,86,0.00,,,0.00,WUHU216HW,2013-09-02 05:06:00,
2013-09-02 01:11:00,70.9,66.5,29.56,SSW,203,0.0,0.0,86,0.00,,,0.00,WUHU216HW,2013-09-02 05:11:00,
2013-09-02 01:16:00,70.7,66.7,29.56,SW,225,0.0,0.0,87,0.00,,,0.00,WUHU216HW,2013-09-02 05:16:00,
2013-09-02 01:21:00,70.7,66.7,29.56,SW,225,0.0,0.0,87,0.00,,,0.00,WUHU216HW,2013-09-02 05:21:00,
2013-09-02 01:26:00,70.6,66.5,29.56,SW,225,0.0,0.0,87,0.00,,,0.00,WUHU216HW,2013-09-02 05:26:00,
2013-09-02 01:31:00,70.6,66.5,29.56,SW,225,0.0,0.0,87,0.00,,,0.00,WUHU216HW,2013-09-02 05:31:00,
2013-09-02 01:36:00,70.4,66.3,29.55,SW,225,0.0,0.0,87,0.00,,,0.00,WUHU216HW,2013-09-02 05:36:00,
2013-09-02 01:41:00,70.2,66.2,29.55,SW,225,0.0,0.0,87,0.00,,,0.00,WUHU216HW,2013-09-02 05:41:00,
2013-09-02 01:46:00,70.2,66.2,29.55,SW,225,0.0,0.0,87,0.00,,,0.00,WUHU216HW,2013-09-02 05:46:00,
2013-09-02 01:51:00,70.0,66.0,29.55,SW,225,0.0,0.0,87,0.00,,,0.00,WUHU216HW,2013-09-02 05:51:00,
2013-09-02 01:56:00,70.0,66.0,29.55,SW,225,0.0,0.0,87,0.00,,,0.00,WUHU216HW,2013-09-02 05:56:00,
2013-09-02 02:01:00,69.8,66.1,29.55,SW,225,0.0,0.0,88,0.00,,,0.00,WUHU216HW,2013-09-02 06:01:00,
2013-09-02 02:06:00,69.8,66.1,29.55,SW,225,0.0,0.0,88,0.00,,,0.00,WUHU216HW,2013-09-02 06:06:00,
2013-09-02 02:11:00,69.8,66.1,29.55,SW,225,0.0,0.0,88,0.00,,,0.00,WUHU216HW,2013-09-02 06:11:00,
2013-09-02 02:16:00,69.7,65.9,29.55,WSW,248,0.2,0.4,88,0.00,,,0.00,WUHU216HW,2013-09-02 06:16:00,
2013-09-02 02:21:00,69.7,66.2,29.54,WSW,248,0.0,0.4,89,0.00,,,0.00,WUHU216HW,2013-09-02 06:21:00,
2013-09-02 02:26:00,69.8,66.1,29.54,WSW,248,0.0,0.4,88,0.00,,,0.00,WUHU216HW,2013-09-02 06:26:00,
2013-09-02 02:31:00,69.8,66.1,29.54,WNW,293,0.2,0.2,88,0.00,,,0.00,WUHU216HW,2013-09-02 06:31:00,
2013-09-02 02:36:00,69.7,65.9,29.54,West,270,0.0,0.2,88,0.00,,,0.00,WUHU216HW,2013-09-02 06:36:00,
2013-09-02 02:41:00,69.8,66.1,29.54,SSW,203,0.0,0.2,88,0.00,,,0.00,WUHU216HW,2013-09-02 06:41:00,
2013-09-02 02:46:00,69.8,66.1,29.54,SSW,203,0.0,0.2,88,0.00,,,0.00,WUHU216HW,2013-09-02 06:46:00,
2013-09-02 02:51:00,69.8,66.1,29.54,West,270,0.0,0.4,88,0.00,,,0.00,WUHU216HW,2013-09-02 06:51:00,
2013-09-02 02:56:00,69.8,66.1,29.54,West,270,0.0,0.4,88,0.00,,,0.00,WUHU216HW,2013-09-02 06:56:00,
2013-09-02 03:01:00,69.7,65.9,29.54,West,270,0.0,0.0,88,0.00,,,0.00,WUHU216HW,2013-09-02 07:01:00,
2013-09-02 03:06:00,69.7,65.9,29.54,West,270,0.0,0.0,88,0.00,,,0.00,WUHU216HW,2013-09-02 07:06:00,
2013-09-02 03:11:00,69.7,65.9,29.54,West,270,0.0,0.0,88,0.00,,,0.00,WUHU216HW,2013-09-02 07:11:00,
2013-09-02 03:16:00,69.5,65.7,29.53,West,270,0.0,0.0,88,0.00,,,0.00,WUHU216HW,2013-09-02 07:16:00,
2013-09-02 03:21:00,69.5,65.7,29.53,West,270,0.0,0.0,88,0.00,,,0.00,WUHU216HW,2013-09-02 07:21:00,
2013-09-02 03:26:00,69.5,65.7,29.53,West,270,0.0,0.0,88,0.00,,,0.00,WUHU216HW,2013-09-02 07:26:00,
2013-09-02 03:31:00,69.5,65.7,29.53,West,270,0.0,0.0,88,0.00,,,0.00,WUHU216HW,2013-09-02 07:31:00,
2013-09-02 03:36:00,69.5,65.7,29.53,West,270,0.0,0.0,88,0.00,,,0.00,WUHU216HW,2013-09-02 07:36:00,
2013-09-02 03:41:00,69.3,65.6,29.53,West,270,0.0,0.0,88,0.00,,,0.00,WUHU216HW,2013-09-02 07:41:00,
2013-09-02 03:46:00,69.3,65.6,29.53,WSW,248,0.0,0.4,88,0.00,,,0.00,WUHU216HW,2013-09-02 07:46:00,
2013-09-02 03:51:00,69.3,65.6,29.53,WSW,248,0.0,0.4,88,0.00,,,0.00,WUHU216HW,2013-09-02 07:51:00,
2013-09-02 03:56:00,69.1,65.4,29.53,WSW,248,0.0,0.2,88,0.00,,,0.00,WUHU216HW,2013-09-02 07:56:00,
2013-09-02 04:01:00,69.1,65.4,29.53,WSW,248,0.0,0.2,88,0.00,,,0.00,WUHU216HW,2013-09-02 08:01:00,
2013-09-02 04:06:00,69.1,65.4,29.53,NNW,338,0.0,0.4,88,0.00,,,0.00,WUHU216HW,2013-09-02 08:06:00,
2013-09-02 04:11:00,69.1,65.4,29.53,NW,315,0.0,0.4,88,0.00,,,0.00,WUHU216HW,2013-09-02 08:11:00,
2013-09-02 04:16:00,68.9,65.3,29.53,WNW,293,0.0,0.4,88,0.00,,,0.00,WUHU216HW,2013-09-02 08:16:00,
2013-09-02 04:21:00,68.9,64.9,29.53,WNW,293,0.0,0.4,87,0.00,,,0.00,WUHU216HW,2013-09-02 08:21:00,
2013-09-02 04:26:00,68.9,64.9,29.53,WNW,293,0.2,0.4,87,0.00,,,0.00,WUHU216HW,2013-09-02 08:26:00,
2013-09-02 04:31:00,68.9,64.9,29.53,West,270,0.0,0.4,87,0.00,,,0.00,WUHU216HW,2013-09-02 08:31:00,
2013-09-02 04:36:00,68.9,64.9,29.53,WSW,248,0.4,0.7,87,0.00,,,0.00,WUHU216HW,2013-09-02 08:36:00,
2013-09-02 04:41:00,68.8,64.7,29.53,West,270,0.4,0.9,87,0.00,,,0.00,WUHU216HW,2013-09-02 08:41:00,
2013-09-02 04:46:00,68.8,64.7,29.53,West,270,0.2,0.9,87,0.00,,,0.00,WUHU216HW,2013-09-02 08:46:00,
2013-09-02 04:51:00,68.8,64.7,29.53,SW,225,0.4,0.9,87,0.00,,,0.00,WUHU216HW,2013-09-02 08:51:00,
2013-09-02 04:56:00,68.8,64.7,29.53,SW,225,0.4,1.1,87,0.00,,,0.00,WUHU216HW,2013-09-02 08:56:00,
2013-09-02 05:01:00,68.8,64.7,29.54,NW,315,0.4,1.1,87,0.00,,,0.00,WUHU216HW,2013-09-02 09:01:00,
2013-09-02 05:06:00,68.8,64.7,29.54,NW,315,0.7,1.1,87,0.00,,,0.00,WUHU216HW,2013-09-02 09:06:00,
2013-09-02 05:11:00,68.8,64.7,29.54,NW,315,0.4,0.7,87,0.00,,,0.00,WUHU216HW,2013-09-02 09:11:00,
2013-09-02 05:16:00,68.8,64.7,29.54,WNW,293,0.7,1.1,87,0.00,,,0.00,WUHU216HW,2013-09-02 09:16:00,
2013-09-02 05:21:00,68.6,64.5,29.54,WSW,248,0.2,1.1,87,0.00,,,0.00,WUHU216HW,2013-09-02 09:21:00,
2013-09-02 05:26:00,68.6,64.5,29.54,WSW,248,0.7,0.7,87,0.00,,,0.00,WUHU216HW,2013-09-02 09:26:00,
2013-09-02 05:31:00,68.4,64.4,29.54,West,270,0.4,0.7,87,0.00,,,0.00,WUHU216HW,2013-09-02 09:31:00,
2013-09-02 05:36:00,68.4,64.7,29.54,West,270,0.4,0.7,88,0.00,,,0.00,WUHU216HW,2013-09-02 09:36:00,
2013-09-02 05:41:00,68.6,64.9,29.54,WNW,293,0.4,0.9,88,0.00,,,0.00,WUHU216HW,2013-09-02 09:41:00,
2013-09-02 05:46:00,68.6,64.9,29.54,West,270,0.0,0.9,88,0.00,,,0.00,WUHU216HW,2013-09-02 09:46:00,
2013-09-02 05:51:00,68.6,64.9,29.54,NW,315,0.0,1.1,88,0.00,,,0.00,WUHU216HW,2013-09-02 09:51:00,
2013-09-02 05:56:00,68.6,64.9,29.54,WSW,248,0.4,1.6,88,0.00,,,0.00,WUHU216HW,2013-09-02 09:56:00,
2013-09-02 06:01:00,68.6,64.9,29.55,NW,315,0.2,1.6,88,0.00,,,0.00,WUHU216HW,2013-09-02 10:01:00,
2013-09-02 06:06:00,68.6,64.9,29.55,WNW,293,0.7,0.9,88,0.00,,,0.00,WUHU216HW,2013-09-02 10:06:00,
2013-09-02 06:11:00,68.8,65.1,29.55,WSW,248,0.2,0.9,88,0.00,,,0.00,WUHU216HW,2013-09-02 10:11:00,
2013-09-02 06:16:00,68.8,65.1,29.55,WSW,248,1.1,1.1,88,0.00,,,0.00,WUHU216HW,2013-09-02 10:16:00,
2013-09-02 06:21:00,68.6,64.9,29.55,West,270,0.4,1.8,88,0.00,,,0.00,WUHU216HW,2013-09-02 10:21:00,
2013-09-02 06:26:00,68.6,64.9,29.56,WNW,293,0.7,1.8,88,0.00,,,0.00,WUHU216HW,2013-09-02 10:26:00,
2013-09-02 06:31:00,68.6,64.9,29.56,West,270,0.4,0.7,88,0.00,,,0.00,WUHU216HW,2013-09-02 10:31:00,
2013-09-02 06:36:00,68.4,64.7,29.56,North,0,1.6,1.8,88,0.00,,,0.00,WUHU216HW,2013-09-02 10:36:00,
2013-09-02 06:41:00,68.4,64.7,29.57,SW,225,0.4,1.8,88,0.00,,,0.00,WUHU216HW,2013-09-02 10:41:00,
2013-09-02 06:46:00,68.4,64.7,29.57,West,270,0.0,1.1,88,0.00,,,0.00,WUHU216HW,2013-09-02 10:46:00,
2013-09-02 06:51:00,68.4,64.7,29.57,NW,315,0.9,0.9,88,0.00,,,0.00,WUHU216HW,2013-09-02 10:51:00,
2013-09-02 06:56:00,68.6,65.2,29.57,WNW,293,0.7,1.1,89,0.00,,,0.00,WUHU216HW,2013-09-02 10:56:00,
2013-09-02 07:01:00,68.6,65.2,29.57,WNW,293,0.2,1.1,89,0.00,,,0.00,WUHU216HW,2013-09-02 11:01:00,
2013-09-02 07:06:00,68.6,65.2,29.58,WSW,248,0.4,1.8,89,0.00,,,0.00,WUHU216HW,2013-09-02 11:06:00,
2013-09-02 07:11:00,68.6,64.9,29.58,WSW,248,0.4,1.8,88,0.00,,,0.00,WUHU216HW,2013-09-02 11:11:00,
2013-09-02 07:16:00,68.6,65.2,29.58,WNW,293,1.1,1.6,89,0.00,,,0.00,WUHU216HW,2013-09-02 11:16:00,
2013-09-02 07:21:00,68.4,65.0,29.58,West,270,0.7,1.1,89,0.00,,,0.00,WUHU216HW,2013-09-02 11:21:00,
2013-09-02 07:26:00,68.4,65.0,29.58,WSW,248,0.9,1.1,89,0.00,,,0.00,WUHU216HW,2013-09-02 11:26:00,
2013-09-02 07:31:00,68.4,64.7,29.58,WNW,293,0.4,1.1,88,0.00,,,0.00,WUHU216HW,2013-09-02 11:31:00,
2013-09-02 07:36:00,68.4,65.0,29.58,NW,315,1.1,1.1,89,0.00,,,0.00,WUHU216HW,2013-09-02 11:36:00,
2013-09-02 07:41:00,68.4,65.0,29.58,WSW,248,0.9,1.1,89,0.00,,,0.00,WUHU216HW,2013-09-02 11:41:00,
2013-09-02 07:46:00,68.4,65.0,29.58,WSW,248,0.4,1.6,89,0.00,,,0.00,WUHU216HW,2013-09-02 11:46:00,
2013-09-02 07:51:00,68.6,65.2,29.58,West,270,0.4,1.6,89,0.00,,,0.00,WUHU216HW,2013-09-02 11:51:00,
2013-09-02 07:56:00,68.6,65.2,29.58,SSW,203,0.9,1.1,89,0.00,,,0.00,WUHU216HW,2013-09-02 11:56:00,
2013-09-02 08:01:00,68.6,65.2,29.59,WNW,293,1.1,1.1,89,0.00,,,0.00,WUHU216HW,2013-09-02 12:01:00,
2013-09-02 08:06:00,68.8,65.3,29.59,NW,315,0.7,1.3,89,0.00,,,0.00,WUHU216HW,2013-09-02 12:06:00,
2013-09-02 08:11:00,68.8,65.3,29.59,WSW,248,1.6,1.6,89,0.00,,,0.00,WUHU216HW,2013-09-02 12:11:00,
2013-09-02 08:16:00,68.8,65.3,29.59,West,270,1.3,1.6,89,0.00,,,0.00,WUHU216HW,2013-09-02 12:16:00,
2013-09-02 08:21:00,68.8,65.1,29.59,SW,225,2.0,2.0,88,0.00,,,0.00,WUHU216HW,2013-09-02 12:21:00,
2013-09-02 08:26:00,68.8,65.1,29.59,West,270,0.2,2.0,88,0.00,,,0.00,WUHU216HW,2013-09-02 12:26:00,
2013-09-02 08:31:00,68.9,65.3,29.60,NW,315,1.1,1.6,88,0.00,,,0.00,WUHU216HW,2013-09-02 12:31:00,
2013-09-02 08:36:00,68.9,65.3,29.60,West,270,0.4,1.8,88,0.00,,,0.00,WUHU216HW,2013-09-02 12:36:00,
2013-09-02 08:41:00,68.9,65.3,29.60,WSW,248,0.4,1.8,88,0.00,,,0.00,WUHU216HW,2013-09-02 12:41:00,
2013-09-02 08:46:00,68.9,65.3,29.60,WSW,248,0.0,1.3,88,0.00,,,0.00,WUHU216HW,2013-09-02 12:46:00,
2013-09-02 08:51:00,69.1,65.4,29.60,WNW,293,0.2,1.3,88,0.00,,,0.00,WUHU216HW,2013-09-02 12:51:00,
2013-09-02 08:56:00,69.1,65.1,29.60,WSW,248,0.7,0.9,87,0.00,,,0.00,WUHU216HW,2013-09-02 12:56:00,
2013-09-02 09:01:00,69.3,65.3,29.60,WSW,248,0.0,0.7,87,0.00,,,0.00,WUHU216HW,2013-09-02 13:01:00,
2013-09-02 09:06:00,69.3,64.9,29.60,West,270,1.1,3.4,86,0.00,,,0.00,WUHU216HW,2013-09-02 13:06:00,
2013-09-02 09:11:00,69.3,64.5,29.60,SW,225,0.4,3.4,85,0.00,,,0.00,WUHU216HW,2013-09-02 13:11:00,
2013-09-02 09:16:00,69.3,64.5,29.60,West,270,0.2,1.6,85,0.00,,,0.00,WUHU216HW,2013-09-02 13:16:00,
2013-09-02 09:21:00,69.1,64.1,29.61,South,180,1.3,1.8,84,0.00,,,0.00,WUHU216HW,2013-09-02 13:21:00,
2013-09-02 09:26:00,69.1,63.7,29.61,West,270,1.3,2.2,83,0.00,,,0.00,WUHU216HW,2013-09-02 13:26:00,
2013-09-02 09:31:00,69.1,63.7,29.61,WNW,293,1.8,2.2,83,0.00,,,0.00,WUHU216HW,2013-09-02 13:31:00,
2013-09-02 09:36:00,69.1,63.7,29.62,NNW,338,1.1,2.2,83,0.00,,,0.00,WUHU216HW,2013-09-02 13:36:00,
2013-09-02 09:41:00,69.1,63.7,29.62,NW,315,0.7,1.8,83,0.00,,,0.00,WUHU216HW,2013-09-02 13:41:00,
2013-09-02 09:46:00,69.1,63.7,29.62,NW,315,0.4,1.8,83,0.00,,,0.00,WUHU216HW,2013-09-02 13:46:00,
2013-09-02 09:51:00,69.3,63.5,29.62,West,270,1.1,1.3,82,0.00,,,0.00,WUHU216HW,2013-09-02 13:51:00,
2013-09-02 09:56:00,69.5,63.7,29.62,West,270,1.1,1.3,82,0.00,,,0.00,WUHU216HW,2013-09-02 13:56:00,
2013-09-02 10:01:00,69.3,63.5,29.63,SW,225,1.8,2.2,82,0.00,,,0.00,WUHU216HW,2013-09-02 14:01:00,
2013-09-02 10:06:00,69.1,63.1,29.63,NNW,338,2.0,3.1,81,0.00,,,0.00,WUHU216HW,2013-09-02 14:06:00,
2013-09-02 10:11:00,69.3,63.2,29.63,SW,225,1.6,3.1,81,0.00,,,0.00,WUHU216HW,2013-09-02 14:11:00,
2013-09-02 10:16:00,69.5,63.4,29.63,NW,315,1.1,2.2,81,0.00,,,0.00,WUHU216HW,2013-09-02 14:16:00,
2013-09-02 10:21:00,69.8,63.7,29.63,NW,315,2.5,2.5,81,0.00,,,0.00,WUHU216HW,2013-09-02 14:21:00,
2013-09-02 10:26:00,69.8,63.4,29.63,WNW,293,1.1,2.7,80,0.00,,,0.00,WUHU216HW,2013-09-02 14:26:00,
2013-09-02 10:31:00,70.0,63.2,29.64,NNW,338,1.8,2.7,79,0.00,,,0.00,WUHU216HW,2013-09-02 14:31:00,
2013-09-02 10:36:00,69.8,62.7,29.64,West,270,1.1,1.8,78,0.00,,,0.00,WUHU216HW,2013-09-02 14:36:00,
2013-09-02 10:41:00,69.7,62.8,29.65,NW,315,0.4,1.8,79,0.00,,,0.00,WUHU216HW,2013-09-02 14:41:00,
2013-09-02 10:46:00,69.8,63.0,29.65,West,270,2.5,2.5,79,0.00,,,0.00,WUHU216HW,2013-09-02 14:46:00,
2013-09-02 10:51:00,69.8,63.0,29.65,South,180,0.9,3.1,79,0.00,,,0.00,WUHU216HW,2013-09-02 14:51:00,
2013-09-02 10:56:00,69.8,62.7,29.65,NE,45,0.9,3.1,78,0.00,,,0.00,WUHU216HW,2013-09-02 14:56:00,
2013-09-02 11:01:00,70.2,63.0,29.65,SE,135,1.6,2.7,78,0.00,,,0.00,WUHU216HW,2013-09-02 15:01:00,
2013-09-02 11:06:00,70.6,62.9,29.66,West,270,1.6,1.8,77,0.00,,,0.00,WUHU216HW,2013-09-02 15:06:00,
2013-09-02 11:11:00,70.6,62.2,29.66,NW,315,1.8,1.8,75,0.00,,,0.00,WUHU216HW,2013-09-02 15:11:00,
2013-09-02 11:16:00,70.2,61.8,29.66,SSW,203,1.8,2.7,75,0.00,,,0.00,WUHU216HW,2013-09-02 15:16:00,
2013-09-02 11:21:00,70.2,62.2,29.66,NW,315,1.8,2.7,76,0.00,,,0.00,WUHU216HW,2013-09-02 15:21:00,
2013-09-02 11:26:00,70.4,62.4,29.66,NNW,338,0.7,2.2,76,0.00,,,0.00,WUHU216HW,2013-09-02 15:26:00,
2013-09-02 11:31:00,70.9,62.9,29.66,West,270,2.7,2.7,76,0.00,,,0.00,WUHU216HW,2013-09-02 15:31:00,
2013-09-02 11:36:00,71.1,62.7,29.66,WSW,248,1.1,2.7,75,0.00,,,0.00,WUHU216HW,2013-09-02 15:36:00,
2013-09-02 11:41:00,71.3,62.6,29.66,NW,315,1.6,1.6,74,0.00,,,0.00,WUHU216HW,2013-09-02 15:41:00,
2013-09-02 11:45:00,71.6,62.9,29.66,North,0,0.4,1.6,74,0.00,,,0.00,WUHU216HW,2013-09-02 15:45:00,
2013-09-02 11:50:00,71.8,62.7,29.66,WSW,248,1.8,1.8,73,0.00,,,0.00,WUHU216HW,2013-09-02 15:50:00,
2013-09-02 11:55:00,72.0,62.5,29.66,NW,315,1.6,1.8,72,0.00,,,0.00,WUHU216HW,2013-09-02 15:55:00,
2013-09-02 12:00:00,72.2,63.5,29.67,WSW,248,0.4,1.8,74,0.00,,,0.00,WUHU216HW,2013-09-02 16:00:00,
2013-09-02 12:05:00,72.5,63.5,29.67,NNW,338,1.8,1.8,73,0.00,,,0.00,WUHU216HW,2013-09-02 16:05:00,
2013-09-02 12:10:00,72.7,62.8,29.67,WSW,248,3.1,3.1,71,0.00,,,0.00,WUHU216HW,2013-09-02 16:10:00,
2013-09-02 12:15:00,72.7,62.8,29.67,WNW,293,0.7,3.1,71,0.00,,,0.00,WUHU216HW,2013-09-02 16:15:00,
2013-09-02 12:20:00,72.7,62.5,29.67,NW,315,1.1,2.2,70,0.00,,,0.00,WUHU216HW,2013-09-02 16:20:00,
2013-09-02 12:25:00,73.1,63.2,29.67,West,270,0.7,2.5,71,0.00,,,0.00,WUHU216HW,2013-09-02 16:25:00,
2013-09-02 12:30:00,73.3,63.4,29.67,NW,315,0.9,2.5,71,0.00,,,0.00,WUHU216HW,2013-09-02 16:30:00,
2013-09-02 12:35:00,73.3,62.6,29.67,WSW,248,1.8,2.2,69,0.00,,,0.00,WUHU216HW,2013-09-02 16:35:00,
2013-09-02 12:40:00,73.3,62.6,29.67,WSW,248,1.8,1.8,69,0.00,,,0.00,WUHU216HW,2013-09-02 16:40:00,
2013-09-02 12:45:00,73.3,62.6,29.67,WSW,248,1.8,1.8,69,0.00,,,0.00,WUHU216HW,2013-09-02 16:45:00,
2013-09-02 12:50:00,73.3,62.6,29.67,WSW,248,1.8,1.8,69,0.00,,,0.00,WUHU216HW,2013-09-02 16:50:00,
2013-09-02 12:55:00,73.3,62.6,29.67,WSW,248,1.8,1.8,69,0.00,,,0.00,WUHU216HW,2013-09-02 16:55:00,
2013-09-02 13:50:00,77.4,64.3,29.66,NNW,338,2.2,2.2,64,0.00,,,0.00,WUHU216HW,2013-09-02 17:50:00,
2013-09-02 13:55:00,77.4,63.8,29.66,NW,315,1.3,2.2,63,0.00,,,0.00,WUHU216HW,2013-09-02 17:55:00,
2013-09-02 14:00:00,77.4,63.8,29.66,North,0,0.9,2.5,63,0.00,,,0.00,WUHU216HW,2013-09-02 18:00:00,
2013-09-02 14:05:00,77.4,63.4,29.66,WNW,293,2.0,2.9,62,0.00,,,0.00,WUHU216HW,2013-09-02 18:05:00,
2013-09-02 14:10:00,77.4,63.4,29.66,WNW,293,2.5,2.9,62,0.00,,,0.00,WUHU216HW,2013-09-02 18:10:00,
2013-09-02 14:15:00,77.4,63.4,29.66,WSW,248,0.7,2.5,62,0.00,,,0.00,WUHU216HW,2013-09-02 18:15:00,
2013-09-02 14:20:00,77.4,63.4,29.66,SW,225,1.6,1.6,62,0.00,,,0.00,WUHU216HW,2013-09-02 18:20:00,
2013-09-02 14:25:00,77.4,63.4,29.66,WNW,293,1.8,2.5,62,0.00,,,0.00,WUHU216HW,2013-09-02 18:25:00,
2013-09-02 14:30:00,77.4,63.4,29.66,WSW,248,1.8,4.5,62,0.00,,,0.00,WUHU216HW,2013-09-02 18:30:00,
2013-09-02 14:35:00,77.6,63.6,29.66,WNW,293,0.7,4.5,62,0.00,,,0.00,WUHU216HW,2013-09-02 18:35:00,
2013-09-02 14:40:00,77.4,63.4,29.66,NNE,23,2.7,2.7,62,0.00,,,0.00,WUHU216HW,2013-09-02 18:40:00,
2013-09-02 14:45:00,77.4,63.4,29.66,West,270,2.0,2.7,62,0.00,,,0.00,WUHU216HW,2013-09-02 18:45:00,
2013-09-02 14:50:00,77.4,62.9,29.66,SW,225,2.5,2.5,61,0.00,,,0.00,WUHU216HW,2013-09-02 18:50:00,
2013-09-02 14:55:00,77.4,62.9,29.66,NW,315,2.2,2.9,61,0.00,,,0.00,WUHU216HW,2013-09-02 18:55:00,
2013-09-02 15:00:00,77.4,62.9,29.65,West,270,1.3,2.9,61,0.00,,,0.00,WUHU216HW,2013-09-02 19:00:00,
2013-09-02 15:05:00,77.4,62.9,29.65,West,270,1.1,2.9,61,0.00,,,0.00,WUHU216HW,2013-09-02 19:05:00,
2013-09-02 15:10:00,77.4,62.9,29.65,NNW,338,1.1,2.0,61,0.00,,,0.00,WUHU216HW,2013-09-02 19:10:00,
2013-09-02 15:15:00,77.4,62.9,29.65,NNW,338,2.2,2.2,61,0.00,,,0.00,WUHU216HW,2013-09-02 19:15:00,
2013-09-02 15:20:00,77.4,62.9,29.65,WNW,293,1.3,2.2,61,0.00,,,0.00,WUHU216HW,2013-09-02 19:20:00,
2013-09-02 15:25:00,77.4,62.9,29.65,NW,315,2.5,2.9,61,0.00,,,0.00,WUHU216HW,2013-09-02 19:25:00,
2013-09-02 15:30:00,77.4,62.9,29.65,NE,45,2.7,2.9,61,0.00,,,0.00,WUHU216HW,2013-09-02 19:30:00,
2013-09-02 15:35:00,77.4,62.9,29.65,NW,315,1.1,2.7,61,0.00,,,0.00,WUHU216HW,2013-09-02 19:35:00,
2013-09-02 15:40:00,77.6,63.1,29.65,NNW,338,2.0,2.5,61,0.00,,,0.00,WUHU216HW,2013-09-02 19:40:00,
2013-09-02 15:45:00,77.4,62.9,29.65,NNW,338,2.2,2.5,61,0.00,,,0.00,WUHU216HW,2013-09-02 19:45:00,
2013-09-02 15:50:00,77.4,62.9,29.65,NNE,23,1.8,2.5,61,0.00,,,0.00,WUHU216HW,2013-09-02 19:50:00,
2013-09-02 15:55:00,77.4,62.9,29.65,NNW,338,2.0,2.5,61,0.00,,,0.00,WUHU216HW,2013-09-02 19:55:00,
2013-09-02 16:00:00,77.6,63.1,29.65,WNW,293,1.6,2.0,61,0.00,,,0.00,WUHU216HW,2013-09-02 20:00:00,
2013-09-02 16:05:00,77.6,63.1,29.66,NW,315,3.8,3.8,61,0.00,,,0.00,WUHU216HW,2013-09-02 20:05:00,
2013-09-02 16:10:00,77.6,63.1,29.65,SW,225,3.1,3.8,61,0.00,,,0.00,WUHU216HW,2013-09-02 20:10:00,
2013-09-02 16:15:00,77.6,62.6,29.66,NW,315,1.1,3.1,60,0.00,,,0.00,WUHU216HW,2013-09-02 20:15:00,
2013-09-02 16:20:00,77.6,63.1,29.66,North,0,1.1,2.5,61,0.00,,,0.00,WUHU216HW,2013-09-02 20:20:00,
2013-09-02 16:25:00,77.6,63.1,29.66,WNW,293,1.1,1.8,61,0.00,,,0.00,WUHU216HW,2013-09-02 20:25:00,
2013-09-02 16:30:00,77.6,63.1,29.66,WSW,248,2.2,4.0,61,0.00,,,0.00,WUHU216HW,2013-09-02 20:30:00,
2013-09-02 16:35:00,77.6,63.1,29.66,NNW,338,1.1,4.0,61,0.00,,,0.00,WUHU216HW,2013-09-02 20:35:00,
2013-09-02 16:40:00,77.6,63.1,29.66,NNW,338,1.8,3.4,61,0.00,,,0.00,WUHU216HW,2013-09-02 20:40:00,
2013-09-02 16:45:00,77.4,60.4,29.66,WNW,293,2.0,2.5,56,0.06,,,0.06,WUHU216HW,2013-09-02 20:45:00,
2013-09-02 16:50:00,76.3,59.4,29.66,WSW,248,1.6,3.8,56,0.06,,,0.06,WUHU216HW,2013-09-02 20:50:00,
2013-09-02 16:55:00,75.4,58.6,29.66,NW,315,1.6,3.8,56,0.06,,,0.06,WUHU216HW,2013-09-02 20:55:00,
2013-09-02 17:00:00,74.7,58.4,29.66,West,270,1.6,3.4,57,0.06,,,0.06,WUHU216HW,2013-09-02 21:00:00,
2013-09-02 17:05:00,74.3,58.6,29.66,North,0,0.9,1.8,58,0.06,,,0.06,WUHU216HW,2013-09-02 21:05:00,
2013-09-02 17:10:00,74.2,59.4,29.66,West,270,1.3,2.2,60,0.06,,,0.06,WUHU216HW,2013-09-02 21:10:00,
2013-09-02 17:15:00,74.2,59.4,29.66,WNW,293,1.3,2.5,60,0.06,,,0.06,WUHU216HW,2013-09-02 21:15:00,
2013-09-02 17:20:00,74.0,58.7,29.66,WSW,248,1.3,2.5,59,0.06,,,0.06,WUHU216HW,2013-09-02 21:20:00,
2013-09-02 17:25:00,73.6,58.9,29.66,NNW,338,1.1,2.9,60,0.06,,,0.06,WUHU216HW,2013-09-02 21:25:00,
2013-09-02 17:30:00,73.4,59.1,29.66,NW,315,1.1,2.9,61,0.06,,,0.06,WUHU216HW,2013-09-02 21:30:00,
2013-09-02 17:35:00,73.3,59.0,29.66,WSW,248,1.8,2.5,61,0.06,,,0.06,WUHU216HW,2013-09-02 21:35:00,
2013-09-02 17:40:00,73.3,59.0,29.66,WNW,293,2.7,2.7,61,0.00,,,0.06,WUHU216HW,2013-09-02 21:40:00,
2013-09-02 17:45:00,73.1,58.8,29.66,WSW,248,1.8,2.7,61,0.00,,,0.06,WUHU216HW,2013-09-02 21:45:00,
2013-09-02 17:50:00,73.3,59.0,29.66,North,0,1.6,1.8,61,0.00,,,0.06,WUHU216HW,2013-09-02 21:50:00,
2013-09-02 17:55:00,73.3,58.5,29.66,NNW,338,1.1,4.0,60,0.00,,,0.06,WUHU216HW,2013-09-02 21:55:00,
2013-09-02 18:00:00,73.1,57.9,29.66,ENE,68,1.6,4.9,59,0.00,,,0.06,WUHU216HW,2013-09-02 22:00:00,
2013-09-02 18:05:00,72.9,58.2,29.66,West,270,0.7,4.9,60,0.00,,,0.06,WUHU216HW,2013-09-02 22:05:00,
2013-09-02 18:10:00,72.9,58.7,29.66,South,180,1.1,2.5,61,0.00,,,0.06,WUHU216HW,2013-09-02 22:10:00,
2013-09-02 18:15:00,72.7,58.5,29.66,NW,315,1.3,2.5,61,0.00,,,0.06,WUHU216HW,2013-09-02 22:15:00,
2013-09-02 18:20:00,72.5,58.3,29.66,West,270,1.1,2.2,61,0.00,,,0.06,WUHU216HW,2013-09-02 22:20:00,
2013-09-02 18:25:00,72.4,58.1,29.66,West,270,0.4,2.2,61,0.00,,,0.06,WUHU216HW,2013-09-02 22:25:00,
2013-09-02 18:30:00,72.2,58.4,29.65,WSW,248,0.7,2.0,62,0.00,,,0.06,WUHU216HW,2013-09-02 22:30:00,
2013-09-02 18:35:00,72.0,58.7,29.66,WSW,248,1.3,1.8,63,0.00,,,0.06,WUHU216HW,2013-09-02 22:35:00,
2013-09-02 18:40:00,71.6,58.0,29.66,WNW,293,0.9,3.6,62,0.00,,,0.06,WUHU216HW,2013-09-02 22:40:00,
2013-09-02 18:45:00,71.3,57.6,29.66,NW,315,1.1,3.6,62,0.00,,,0.06,WUHU216HW,2013-09-02 22:45:00,
2013-09-02 18:50:00,70.9,57.7,29.66,WSW,248,2.5,3.1,63,0.00,,,0.06,WUHU216HW,2013-09-02 22:50:00,
2013-09-02 18:55:00,70.7,57.5,29.66,West,270,0.7,2.5,63,0.00,,,0.06,WUHU216HW,2013-09-02 22:55:00,
2013-09-02 19:00:00,70.6,57.3,29.66,NW,315,1.3,2.5,63,0.00,,,0.06,WUHU216HW,2013-09-02 23:00:00,
2013-09-02 19:05:00,70.4,57.2,29.66,SW,225,1.3,2.2,63,0.00,,,0.06,WUHU216HW,2013-09-02 23:05:00,
2013-09-02 19:10:00,70.2,57.4,29.66,SSW,203,2.7,2.7,64,0.00,,,0.06,WUHU216HW,2013-09-02 23:10:00,
2013-09-02 19:15:00,70.2,57.4,29.66,WSW,248,2.5,2.7,64,0.00,,,0.06,WUHU216HW,2013-09-02 23:15:00,
2013-09-02 19:20:00,69.8,57.1,29.66,West,270,1.1,2.5,64,0.00,,,0.06,WUHU216HW,2013-09-02 23:20:00,
2013-09-02 19:25:00,69.5,57.2,29.67,WSW,248,0.7,2.2,65,0.00,,,0.06,WUHU216HW,2013-09-02 23:25:00,
2013-09-02 19:30:00,69.5,57.2,29.67,WNW,293,0.7,2.0,65,0.00,,,0.06,WUHU216HW,2013-09-02 23:30:00,
2013-09-02 19:35:00,69.1,56.8,29.67,NW,315,0.4,1.8,65,0.00,,,0.06,WUHU216HW,2013-09-02 23:35:00,
2013-09-02 19:40:00,68.9,56.7,29.67,WNW,293,0.9,1.8,65,0.00,,,0.06,WUHU216HW,2013-09-02 23:40:00,
2013-09-02 19:45:00,68.9,57.1,29.67,North,0,0.7,1.3,66,0.00,,,0.06,WUHU216HW,2013-09-02 23:45:00,
2013-09-02 19:50:00,68.8,56.9,29.67,West,270,1.1,1.3,66,0.00,,,0.06,WUHU216HW,2013-09-02 23:50:00,
2013-09-02 19:55:00,68.6,56.7,29.67,West,270,0.9,1.8,66,0.00,,,0.06,WUHU216HW,2013-09-02 23:55:00,
2013-09-02 20:00:00,68.4,56.6,29.67,WSW,248,1.3,1.8,66,0.00,,,0.06,WUHU216HW,2013-09-03 00:00:00,
2013-09-02 20:05:00,68.2,56.4,29.68,WSW,248,0.7,1.8,66,0.00,,,0.06,WUHU216HW,2013-09-03 00:05:00,
2013-09-02 20:10:00,68.0,56.7,29.68,NNW,338,0.2,1.3,67,0.00,,,0.06,WUHU216HW,2013-09-03 00:10:00,
2013-09-02 20:15:00,67.9,56.5,29.68,WNW,293,1.3,1.3,67,0.00,,,0.06,WUHU216HW,2013-09-03 00:15:00,
2013-09-02 20:20:00,67.7,56.4,29.68,WSW,248,1.8,1.8,67,0.00,,,0.06,WUHU216HW,2013-09-03 00:20:00,
2013-09-02 20:25:00,67.5,56.2,29.69,NW,315,1.3,1.8,67,0.00,,,0.06,WUHU216HW,2013-09-03 00:25:00,
2013-09-02 20:30:00,67.3,55.5,29.69,NNW,338,1.6,1.8,66,0.00,,,0.06,WUHU216HW,2013-09-03 00:30:00,
2013-09-02 20:35:00,67.0,55.2,29.69,SW,225,1.8,1.8,66,0.00,,,0.06,WUHU216HW,2013-09-03 00:35:00,
2013-09-02 20:40:00,66.8,55.4,29.69,SSW,203,1.1,1.8,67,0.00,,,0.06,WUHU216HW,2013-09-03 00:40:00,
2013-09-02 20:45:00,66.6,54.8,29.69,SW,225,1.1,2.2,66,0.00,,,0.06,WUHU216HW,2013-09-03 00:45:00,
2013-09-02 20:50:00,66.4,54.7,29.69,West,270,2.0,2.2,66,0.00,,,0.06,WUHU216HW,2013-09-03 00:50:00,
2013-09-02 20:55:00,66.1,54.4,29.69,WNW,293,1.6,2.0,66,0.00,,,0.06,WUHU216HW,2013-09-03 00:55:00,
2013-09-02 21:00:00,65.9,54.2,29.70,WSW,248,0.9,2.2,66,0.00,,,0.06,WUHU216HW,2013-09-03 01:00:00,
2013-09-02 21:05:00,65.7,54.0,29.70,WNW,293,0.4,2.2,66,0.00,,,0.06,WUHU216HW,2013-09-03 01:05:00,
2013-09-02 21:10:00,65.5,53.8,29.69,NW,315,1.1,1.1,66,0.00,,,0.06,WUHU216HW,2013-09-03 01:10:00,
2013-09-02 21:15:00,65.3,54.1,29.70,West,270,0.7,1.1,67,0.00,,,0.06,WUHU216HW,2013-09-03 01:15:00,
2013-09-02 21:20:00,65.2,53.9,29.70,West,270,0.7,1.1,67,0.00,,,0.06,WUHU216HW,2013-09-03 01:20:00,
2013-09-02 21:25:00,64.8,53.6,29.70,NNW,338,0.7,1.8,67,0.00,,,0.06,WUHU216HW,2013-09-03 01:25:00,
2013-09-02 21:30:00,64.6,53.8,29.70,WNW,293,0.4,1.8,68,0.00,,,0.06,WUHU216HW,2013-09-03 01:30:00,
2013-09-02 21:35:00,64.4,53.6,29.70,SW,225,0.4,3.1,68,0.00,,,0.06,WUHU216HW,2013-09-03 01:35:00,
2013-09-02 21:40:00,64.3,53.5,29.71,NW,315,0.9,3.1,68,0.00,,,0.06,WUHU216HW,2013-09-03 01:40:00,
2013-09-02 21:45:00,64.1,53.3,29.70,WNW,293,0.4,1.6,68,0.00,,,0.06,WUHU216HW,2013-09-03 01:45:00,
2013-09-02 21:50:00,63.9,53.2,29.71,WNW,293,0.4,1.6,68,0.00,,,0.06,WUHU216HW,2013-09-03 01:50:00,
2013-09-02 21:55:00,63.9,53.6,29.71,West,270,0.9,0.9,69,0.00,,,0.06,WUHU216HW,2013-09-03 01:55:00,
2013-09-02 22:00:00,63.7,52.6,29.71,WNW,293,1.1,2.7,67,0.00,,,0.06,WUHU216HW,2013-09-03 02:00:00,
2013-09-02 22:05:00,63.5,52.4,29.71,NNW,338,0.7,2.7,67,0.00,,,0.06,WUHU216HW,2013-09-03 02:05:00,
2013-09-02 22:10:00,63.5,52.4,29.71,WSW,248,0.9,2.5,67,0.00,,,0.06,WUHU216HW,2013-09-03 02:10:00,
2013-09-02 22:15:00,63.4,51.8,29.71,WNW,293,2.7,2.7,66,0.00,,,0.06,WUHU216HW,2013-09-03 02:15:00,
2013-09-02 22:20:00,63.4,52.2,29.72,WSW,248,1.3,2.7,67,0.00,,,0.06,WUHU216HW,2013-09-03 02:20:00,
2013-09-02 22:25:00,63.2,51.6,29.72,SW,225,0.9,2.5,66,0.00,,,0.06,WUHU216HW,2013-09-03 02:25:00,
2013-09-02 22:30:00,63.0,51.4,29.72,WNW,293,1.3,2.7,66,0.00,,,0.06,WUHU216HW,2013-09-03 02:30:00,
2013-09-02 22:35:00,63.0,51.8,29.72,NNW,338,1.1,2.7,67,0.00,,,0.06,WUHU216HW,2013-09-03 02:35:00,
2013-09-02 22:40:00,62.8,51.3,29.72,NW,315,0.9,3.8,66,0.00,,,0.06,WUHU216HW,2013-09-03 02:40:00,
2013-09-02 22:45:00,62.6,51.5,29.72,WSW,248,1.8,3.8,67,0.00,,,0.06,WUHU216HW,2013-09-03 02:45:00,
2013-09-02 22:50:00,62.6,51.5,29.72,WSW,248,0.4,2.5,67,0.00,,,0.06,WUHU216HW,2013-09-03 02:50:00,
2013-09-02 22:55:00,62.6,51.9,29.72,NW,315,1.8,2.5,68,0.00,,,0.06,WUHU216HW,2013-09-03 02:55:00,
2013-09-02 23:00:00,62.6,51.9,29.72,WSW,248,0.9,2.0,68,0.00,,,0.06,WUHU216HW,2013-09-03 03:00:00,
2013-09-02 23:05:00,62.6,51.9,29.72,WSW,248,0.4,2.0,68,0.00,,,0.06,WUHU216HW,2013-09-03 03:05:00,
2013-09-02 23:10:00,62.6,51.9,29.72,WNW,293,1.6,1.8,68,0.00,,,0.06,WUHU216HW,2013-09-03 03:10:00,
2013-09-02 23:15:00,62.5,51.8,29.72,WSW,248,0.7,1.8,68,0.00,,,0.06,WUHU216HW,2013-09-03 03:15:00,
2013-09-02 23:20:00,62.3,51.6,29.72,SW,225,0.0,1.6,68,0.00,,,0.06,WUHU216HW,2013-09-03 03:20:00,
2013-09-02 23:25:00,62.3,51.6,29.72,WSW,248,0.7,1.3,68,0.00,,,0.06,WUHU216HW,2013-09-03 03:25:00,
2013-09-02 23:30:00,62.3,51.6,29.72,NW,315,0.9,1.1,68,0.00,,,0.06,WUHU216HW,2013-09-03 03:30:00,
2013-09-02 23:35:00,62.3,52.0,29.72,WSW,248,0.7,1.6,69,0.00,,,0.06,WUHU216HW,2013-09-03 03:35:00,
2013-09-02 23:40:00,62.1,51.8,29.72,NNW,338,1.1,1.6,69,0.00,,,0.06,WUHU216HW,2013-09-03 03:40:00,
2013-09-02 23:45:00,62.1,51.4,29.72,NW,315,0.9,2.2,68,0.00,,,0.06,WUHU216HW,2013-09-03 03:45:00,
2013-09-02 23:50:00,61.9,51.7,29.72,SW,225,1.1,2.2,69,0.00,,,0.06,WUHU216HW,2013-09-03 03:50:00,
2013-09-02 23:55:00,61.7,51.5,29.73,SW,225,0.9,2.5,69,0.00,,,0.06,WUHU216HW,2013-09-03 03:55:00,